When you browse on this site, cookies collect data to enhance your experience and personalize the content and advertising you see.
Visit our Privacy Policy to learn more. By continuing to use the site, you agree to this use of cookies and data.
  • In Hungary
  • List of Countries
  • For 7 days
  • Water Temperature
  • Satellite Maps
  • Weather Map
  • News
  • Weather Widgets
  • user-avatar
    Login

    Hourly Weather Kirtipur

    Today, 16 February, Saturday

    Time Temperature Precipitation Wind Pressure Humidity
    00:00 +14°C° 0 mm 2 mps 690 mmHg 40%
    01:00 +14°C° 0 mm 1 mps 689 mmHg 37%
    02:00 +14°C° 0 mm 1 mps 689 mmHg 34%
    03:00 +14°C° 0 mm 1 mps 688 mmHg 32%
    04:00 +14°C° 0 mm 1 mps 688 mmHg 31%
    05:00 +14°C° 0 mm 1 mps 689 mmHg 30%
    06:00 +14°C° 0 mm 1 mps 689 mmHg 29%
    07:00 +15°C° 0 mm 1 mps 689 mmHg 29%
    08:00 +16°C° 0 mm 1 mps 689 mmHg 29%
    09:00 +18°C° 0 mm 1 mps 690 mmHg 29%
    10:00 +20°C° 0 mm 1 mps 690 mmHg 27%
    11:00 +22°C° 0 mm 1 mps 690 mmHg 24%
    12:00 +24°C° 0 mm 1 mps 690 mmHg 22%
    13:00 +24°C° 0 mm 2 mps 689 mmHg 24%
    14:00 +24°C° 0 mm 2 mps 689 mmHg 26%
    15:00 +23°C° 0 mm 2 mps 688 mmHg 29%
    16:00 +21°C° 0 mm 2 mps 687 mmHg 37%
    17:00 +20°C° 0 mm 1 mps 687 mmHg 45%
    18:00 +18°C° 0 mm 1 mps 686 mmHg 53%
    19:00 +16°C° 0.1 mm 1 mps 687 mmHg 55%
    20:00 +15°C° 0.1 mm 1 mps 687 mmHg 58%
    21:00 +14°C° 0.1 mm 1 mps 687 mmHg 61%
    22:00 +14°C° 0 mm 1 mps 687 mmHg 59%
    23:00 +13°C° 0 mm 2 mps 687 mmHg 57%

    Tomorrow, 17 February, Sunday

    Time Temperature Precipitation Wind Pressure Humidity
    00:00 +13°C° 0 mm 2 mps 687 mmHg 55%
    01:00 +12°C° 0 mm 2 mps 686 mmHg 51%
    02:00 +12°C° 0 mm 2 mps 686 mmHg 46%
    03:00 +12°C° 0 mm 2 mps 686 mmHg 41%
    04:00 +10°C° 0 mm 2 mps 685 mmHg 38%
    05:00 +10°C° 0 mm 2 mps 685 mmHg 34%
    06:00 +10°C° 0 mm 2 mps 685 mmHg 30%
    07:00 +13°C° 0 mm 1 mps 686 mmHg 28%
    08:00 +15°C° 0 mm 1 mps 687 mmHg 25%
    09:00 +16°C° 0 mm 0 mps 688 mmHg 23%
    10:00 +20°C° 0 mm 1 mps 687 mmHg 24%
    11:00 +20°C° 0 mm 2 mps 687 mmHg 24%
    12:00 +21°C° 0 mm 2 mps 687 mmHg 25%
    13:00 +21°C° 0 mm 3 mps 687 mmHg 27%
    14:00 +21°C° 0 mm 3 mps 686 mmHg 29%
    15:00 +21°C° 0 mm 3 mps 685 mmHg 31%
    16:00 +20°C° 0 mm 3 mps 685 mmHg 40%
    17:00 +18°C° 0 mm 2 mps 685 mmHg 50%
    18:00 +16°C° 0 mm 2 mps 684 mmHg 59%
    19:00 +15°C° 0 mm 2 mps 685 mmHg 66%
    20:00 +14°C° 0 mm 1 mps 685 mmHg 73%
    21:00 +13°C° 0 mm 1 mps 685 mmHg 79%
    22:00 +12°C° 0 mm 1 mps 685 mmHg 80%
    23:00 +12°C° 0 mm 1 mps 685 mmHg 80%

    Day after tomorrow, 18 February, Monday

    Time Temperature Precipitation Wind Pressure Humidity
    00:00 +12°C° 0 mm 1 mps 685 mmHg 81%
    01:00 +12°C° 0 mm 1 mps 684 mmHg 79%
    02:00 +11°C° 0 mm 1 mps 684 mmHg 77%
    03:00 +11°C° 0 mm 1 mps 684 mmHg 75%
    04:00 +11°C° 0 mm 1 mps 684 mmHg 72%
    05:00 +11°C° 0 mm 1 mps 684 mmHg 68%
    06:00 +11°C° 0 mm 1 mps 683 mmHg 64%
    07:00 +13°C° 0 mm 1 mps 684 mmHg 58%
    08:00 +15°C° 0 mm 1 mps 685 mmHg 52%
    09:00 +18°C° 0 mm 1 mps 686 mmHg 46%
    10:00 +18°C° 0 mm 2 mps 686 mmHg 45%
    11:00 +19°C° 0 mm 2 mps 687 mmHg 44%
    12:00 +20°C° 0 mm 2 mps 687 mmHg 42%
    13:00 +20°C° 0 mm 2 mps 686 mmHg 45%
    14:00 +20°C° 0 mm 2 mps 685 mmHg 47%
    15:00 +20°C° 0 mm 3 mps 685 mmHg 49%
    16:00 +19°C° 0.3 mm 2 mps 684 mmHg 56%
    17:00 +18°C° 0.3 mm 1 mps 684 mmHg 63%
    18:00 +16°C° 0.3 mm 1 mps 684 mmHg 70%
    19:00 +15°C° 0.2 mm 1 mps 685 mmHg 74%
    20:00 +14°C° 0.2 mm 1 mps 685 mmHg 78%
    21:00 +13°C° 0.2 mm 1 mps 686 mmHg 82%
    22:00 +13°C° 0 mm 1 mps 686 mmHg 83%
    23:00 +13°C° 0 mm 1 mps 686 mmHg 84%

    19 February, Tuesday

    Time Temperature Precipitation Wind Pressure Humidity
    00:00 +13°C° 0 mm 1 mps 686 mmHg 85%
    01:00 +12°C° 0 mm 1 mps 686 mmHg 84%
    02:00 +12°C° 0 mm 1 mps 686 mmHg 83%
    03:00 +12°C° 0 mm 1 mps 685 mmHg 82%
    04:00 +12°C° 0 mm 1 mps 686 mmHg 79%
    05:00 +12°C° 0 mm 1 mps 686 mmHg 76%
    06:00 +12°C° 0 mm 1 mps 686 mmHg 73%
    07:00 +13°C° 0 mm 1 mps 687 mmHg 66%
    08:00 +15°C° 0 mm 1 mps 688 mmHg 58%
    09:00 +15°C° 0 mm 0 mps 689 mmHg 51%
    10:00 +16°C° 0.2 mm 0 mps 689 mmHg 50%
    11:00 +16°C° 0.2 mm 0 mps 689 mmHg 50%
    12:00 +17°C° 0.2 mm 0 mps 689 mmHg 49%
    13:00 +18°C° 0 mm 0 mps 688 mmHg 45%
    14:00 +19°C° 0 mm 0 mps 688 mmHg 41%
    15:00 +22°C° 0 mm 1 mps 687 mmHg 37%
    16:00 +21°C° 0 mm 1 mps 687 mmHg 43%
    17:00 +19°C° 0 mm 1 mps 687 mmHg 49%
    18:00 +18°C° 0 mm 1 mps 687 mmHg 55%
    19:00 +16°C° 0 mm 1 mps 688 mmHg 59%
    20:00 +15°C° 0 mm 1 mps 688 mmHg 62%
    21:00 +13°C° 0 mm 2 mps 689 mmHg 65%
    22:00 +13°C° 0 mm 2 mps 689 mmHg 64%
    23:00 +13°C° 0 mm 2 mps 689 mmHg 63%

    20 February, Wednesday

    Time Temperature Precipitation Wind Pressure Humidity
    00:00 +13°C° 0 mm 2 mps 689 mmHg 61%
    01:00 +12°C° 0 mm 2 mps 688 mmHg 59%
    02:00 +12°C° 0 mm 2 mps 688 mmHg 56%
    03:00 +12°C° 0 mm 2 mps 688 mmHg 53%
    04:00 +12°C° 0 mm 2 mps 688 mmHg 51%
    05:00 +12°C° 0 mm 2 mps 688 mmHg 48%
    06:00 +12°C° 0 mm 2 mps 688 mmHg 46%
    07:00 +14°C° 0 mm 1 mps 689 mmHg 42%
    08:00 +16°C° 0 mm 1 mps 690 mmHg 38%
    09:00 +18°C° 0 mm 0 mps 691 mmHg 33%
    10:00 +21°C° 0 mm 1 mps 691 mmHg 33%
    11:00 +21°C° 0 mm 2 mps 691 mmHg 32%
    12:00 +24°C° 0 mm 2 mps 691 mmHg 32%
    13:00 +24°C° 0 mm 2 mps 690 mmHg 32%
    14:00 +24°C° 0 mm 2 mps 689 mmHg 32%
    15:00 +24°C° 0 mm 3 mps 689 mmHg 32%
    16:00 +21°C° 0 mm 2 mps 689 mmHg 38%
    17:00 +20°C° 0 mm 2 mps 688 mmHg 44%
    18:00 +19°C° 0 mm 1 mps 688 mmHg 51%
    19:00 +18°C° 0 mm 1 mps 689 mmHg 53%
    20:00 +16°C° 0 mm 1 mps 689 mmHg 56%
    21:00 +15°C° 0 mm 1 mps 690 mmHg 59%
    22:00 +15°C° 0 mm 1 mps 690 mmHg 58%
    23:00 +15°C° 0 mm 2 mps 690 mmHg 57%

    21 February, Thursday

    Time Temperature Precipitation Wind Pressure Humidity
    00:00 +15°C° 0 mm 2 mps 690 mmHg 56%
    01:00 +14°C° 0 mm 2 mps 690 mmHg 54%
    02:00 +14°C° 0 mm 1 mps 689 mmHg 52%
    03:00 +14°C° 0 mm 1 mps 689 mmHg 50%
    04:00 +14°C° 0 mm 2 mps 689 mmHg 47%
    05:00 +14°C° 0 mm 2 mps 689 mmHg 45%
    06:00 +13°C° 0 mm 2 mps 689 mmHg 42%
    07:00 +16°C° 0 mm 2 mps 690 mmHg 38%
    08:00 +19°C° 0 mm 1 mps 691 mmHg 33%
    09:00 +21°C° 0 mm 1 mps 692 mmHg 29%
    10:00 +22°C° 0 mm 1 mps 692 mmHg 29%
    11:00 +23°C° 0 mm 2 mps 692 mmHg 29%
    12:00 +25°C° 0 mm 2 mps 692 mmHg 30%
    13:00 +25°C° 0 mm 2 mps 691 mmHg 30%
    14:00 +26°C° 0 mm 2 mps 691 mmHg 30%
    15:00 +26°C° 0 mm 2 mps 690 mmHg 30%
    16:00 +24°C° 0 mm 2 mps 690 mmHg 36%
    17:00 +22°C° 0 mm 1 mps 690 mmHg 43%
    18:00 +21°C° 0 mm 1 mps 690 mmHg 49%
    19:00 +20°C° 0 mm 1 mps 690 mmHg 48%
    20:00 +19°C° 0 mm 1 mps 690 mmHg 46%
    21:00 +17°C° 0 mm 2 mps 691 mmHg 45%
    22:00 +17°C° 0 mm 2 mps 690 mmHg 40%
    23:00 +17°C° 0 mm 2 mps 690 mmHg 36%
    Show more